Location: Cambroso
(45.2833°N, 12.0850°E)
Time: 16:06:59
(UTC+00:00)

Cosmos 2058 Rocket - Pass Details

Date: 21 January 2021
Orbit: 611 x 638 km, 82.5° (Epoch: 26 February)

Event Time Altitude Azimuth Distance (km) Brightness Sun altitude
Rises 17:41:13 0° 346° (NNW) 2,943 6.6 -17.0°
Reaches altitude 10° 17:43:30 10° 342° (NNW) 2,032 5.8 -17.4°
Maximum altitude 17:47:53 53° 266° (W) 785 3.9 -18.1°
Drops below altitude 10° 17:52:16 10° 190° (S) 2,023 5.9 -18.9°
Sets 17:54:32 0° 185° (S) 2,927 6.7 -19.3°
